ERS 2 DEB

Satellite information

Favourite Embed

Satellite Type and Status

DEBRISIN ORBIT

Key statistics

Satellite ERS 2 DEB at a glance.

Uptime

11099

Days in orbit

Revolutions

≈ 14.5

Per day

Orbit

SSO

Sun Synchronous Orbit

Inclination

98.3

Latest

Satellite identification and parameters

Extended collection of information and parameters for ERS 2 DEB.

Object identification

Identified? True

Debris? True

Object name: ERS 2 DEB

International designator: 1995-021F

Object number (NORAD): 35392

Object ID (CCSDS): 35392

Country: EUROPEAN SPACE AGENCY (ESA)

Current information (Y/N): Y

RCS size: SMALL

Orbital parameters

Period: 99.159 minutes

Inclination: 98.2821 deg

SMA: 7096.556 km

Apoapsis: 719.083 km

Periapsis: 717.758 km

RAAN: 220.5112 deg

Eccentricy: 0.00009336

Argument of periapsis: 243.7078 deg

Mean anomaly: 116.4022 deg

Mean motion: 14.52216363 rev/day

Mean motion (dot): 0.00003561 rev/day2

B* drag term: 0.00088806134 1/REarth

Two-line elements (TLE)

Creation date: Sept. 8, 2025, 6:18 p.m.

Reference frame: TEME

Reference center: EARTH

Epoch: Sept. 8, 2025, 9:18 a.m. UTC

TLE line 0: 0 ERS 2 DEB

TLE line 1: 1 35392U 95021F 25251.38751056 .00003561 00000-0 88806-3 0 9997

TLE line 2: 2 35392 98.2821 220.5112 0000934 243.7078 116.4022 14.52216363928282

Live tracking on map

Real-time ground track for satellite ERS 2 DEB.

In-orbit conjunctions

A list of the most updated potential collisions computed for object ERS 2 DEB.

Target Orbit TCA Probability of collision Miss distance Type
CZ-6A DEB LEO 2024-10-22 02:20:32 0.0001060562 211.0 (m) DEBRIS

Associated space launch

ERS (European Remote Sensing Satellite) are a family of multi-disciplinary Earth Observation Satellites.

ERS 2 DEB was lifted into orbit during the mission ‘Ariane 40 | ERS-2’, on board a Ariane 40 space rocket.

The launch took place on April 21, 1995, 1:44 a.m. from Ariane Launch Area 2.

For more information about the launch, click the button.

Launch to space Ariane 40 | ERS-2
Ariane 40 | ERS-2

Agency: N/A

Status: Launch Successful

Launch date: April 21, 1995, 1:44 a.m. UTC

Rocket: Ariane 40

Launch pad: Ariane Launch Area 2

Location: Guiana Space Centre, French Guiana

...

Latest news about this satellite

News about space launch
Impending European satellite reentry highlights debris mitigation challenges

The impending reentry of a defunct European satellite serves as a reminder of the hazards posed by existing objects even as agencies work to mitigate the growth of orbital debris.

News about space launch
A big European satellite will make an uncontrolled return to Earth Wednesday

What goes up must come down.


Newsletter sign-up

Weekly statistics, charts and insights to help you stay on top of the space industry.